Location: Coopersdale
(40.3556°N, 78.9372°W)
Time: 03:13:20
(UTC+00:00)

Tiros 1 despin weight - Pass Details

Date: 20 January 2021
Orbit: 593 x 642 km, 48.2° (Epoch: 02 March)

Event Time Altitude Azimuth Distance (km) Brightness Sun altitude
Rises 01:27:06 0° 298° (WNW) 2,842 ? -35.5°
Reaches altitude 10° 01:29:32 10° 307° (NW) 1,933 ? -36.0°
Enters shadow 01:29:54 12° 308° (NW) 1,802 ? -36.1°
Maximum altitude 01:33:42 39° 17° (NNE) 891 - -36.8°
Drops below altitude 10° 01:37:50 10° 87° (E) 1,921 - -37.6°
Sets 01:40:14 0° 95° (E) 2,821 - -38.0°
